#timestamp,LO_Frequency,Hit,StdDev 
1685037615.3,286046998.8,N
1685037635.1,286046996.9,N
1685037655.9,286046999.0,N
1685037675.7,286046998.7,N
1685037695.6,286047000.0,N
1685037715.4,286047001.2,N
1685037735.2,286046996.6,N
1685037755.1,286046998.8,N
1685037756.0,286046998.8,N
1685037775.8,286046996.5,N
1685037795.6,286046996.8,N
1685037815.5,286046999.5,N
1685037835.3,286046998.7,N
1685037855.2,286046999.5,N
1685037875.9,286047000.9,N
1685037895.7,286046997.5,N
1685037915.6,286046998.1,N
1685037935.4,286047001.2,N
1685037955.2,286046998.3,N
1685037975.1,286046998.5,N
1685037976.0,286046998.5,N
1685037995.8,286047000.9,N
1685038015.7,286046999.9,N
1685038035.5,286046998.1,N
1685038055.3,286047002.2,N
1685038075.2,286047002.8,N
1685038095.0,286046999.1,N
1685038095.9,286046999.1,N
1685038115.7,286046998.5,N
1685038135.6,286047002.6,N
1685038155.4,286046998.7,N
1685038175.3,286046998.1,N
1685038195.1,286047002.3,N
1685038196.0,286047002.3,N
1685038215.8,286047001.1,N
1685038235.7,286047004.2,N
1685038255.5,286047002.7,N
1685038275.4,286046998.6,N
1685038295.2,286046997.0,N
1685038315.0,286047000.6,N
1685038315.9,286047000.6,N
1685038335.8,286047002.7,N
1685038355.6,286047002.7,N
1685038375.4,286046999.8,N
1685038395.3,286047002.6,N
1685038415.1,286046999.8,N
1685038435.9,286047000.6,N
1685038455.7,286046998.7,N
1685038475.5,286046999.5,N
1685038495.4,286047000.8,N
1685038515.2,286046998.8,N
1685038535.0,286046998.1,N
1685038535.9,286046998.1,N
1685038555.8,286046998.3,N
1685038575.6,286046998.7,N
1685038595.5,286047000.8,N
1685038615.3,286046998.2,N
1685038635.1,286047002.8,N
1685038655.9,286046999.8,N
1685038675.7,286047002.8,N
1685038695.5,286046998.7,N
1685038715.4,286047002.8,N
1685038735.2,286046999.9,N
1685038755.0,286047002.6,N
1685038756.0,286047002.6,N
1685038775.8,286047000.3,N
1685038795.6,286047004.3,N
1685038815.5,286047000.3,N
1685038835.3,286046999.8,N
1685038855.1,286047002.7,N
1685038875.9,286047000.2,N
1685038895.7,286046998.5,N
1685038915.5,286046999.0,N
1685038935.4,286046998.2,N
1685038955.2,286047000.6,N
1685038975.1,286047001.1,N
1685038976.0,286047001.1,N
1685038995.8,286047000.8,N
1685039015.6,286046998.1,N
1685039035.5,286047000.6,N
1685039055.3,286046998.1,N
1685039075.1,286046998.6,N
1685039095.9,286046998.1,N
1685039115.7,286046999.9,N
1685039135.6,286047000.8,N
1685039155.4,286047000.2,N
1685039175.2,286046998.1,N
1685039225.1,286046999.7,E
1685039235.0,286047000.0,N
1685039235.9,286047000.0,P
1685039255.8,286047002.5,P
1685039275.6,286047000.1,N
1685039295.4,286046998.6,N
1685039315.3,286046999.4,N
1685039335.1,286046999.2,N
1685039355.8,286046998.8,N
1685039375.7,286046998.2,N
1685039395.5,286047001.0,N
1685039415.4,286047002.0,N
1685039435.2,286047001.0,N
1685039455.0,286047000.0,N
1685039455.9,286047000.0,N
1685039475.8,286046999.9,N
1685039495.6,286047000.7,N
1685039515.4,286047000.9,N
1685039535.3,286047001.0,N
1685039555.1,286047000.8,N
1685039575.9,286047012.6,Y
1685039595.7,286047015.5,P
1685039615.5,286046964.2,P
1685039635.4,286046997.5,N
1685039655.2,286046992.5,N
1685039675.0,286047027.2,N
1685039675.9,286047027.2,N
1685039695.8,286046997.1,N
1685039715.6,286047002.7,N
1685039735.5,286046996.9,N
1685039755.3,286046999.1,N
1685039775.1,286046999.1,N
1685039795.9,286046999.6,N
1685039815.7,286046996.7,N
1685039835.5,286046997.1,N
1685039855.4,286047002.9,N
1685039875.2,286047003.2,N
1685039895.1,286047005.4,N
1685039896.0,286047005.4,N
1685039915.8,286046998.5,N
1685039935.6,286046999.4,N
1685039955.5,286047006.3,N
1685039975.3,286046999.4,N
1685039995.1,286046999.4,N
1685040015.9,286046998.4,N
1685040035.7,286046999.1,N
1685040055.6,286046999.5,N
1685040075.4,286046999.2,N
1685040095.2,286046999.0,N
1685040115.1,286046999.1,N
1685040116.0,286046999.1,N
1685040135.8,286046996.5,N
1685040155.6,286046996.6,N
1685040175.5,286046999.3,N
1685040195.3,286046999.0,N
1685040215.2,286047001.1,N
1685040235.9,286047001.1,N
1685040255.7,286046998.0,N
1685040275.6,286046997.5,N
1685040295.4,286046998.6,N
1685040315.2,286046998.8,N
1685040335.1,286046996.9,N
1685040336.0,286046996.9,N
1685040355.8,286046997.6,N
1685040375.7,286046997.0,N
1685040395.5,286046997.5,N
1685040415.3,286046996.6,N
1685040435.2,286046995.8,N
1685040455.0,286046994.5,N
1685040455.9,286046994.5,N
1685040475.8,286046998.0,N
1685040495.6,286046995.6,N
1685040515.4,286046998.0,N
1685040535.3,286046995.7,N
1685040555.1,286046997.9,N
1685040575.8,286046993.9,Y
1685040595.7,286047062.6,P
1685040615.5,286047062.9,N
1685040635.4,286046995.8,N
1685040655.2,286046994.9,N
1685040675.0,286046995.1,N
1685040675.9,286046995.1,N
1685040695.8,286046995.7,N
1685040715.6,286046999.6,N
1685040735.4,286047062.6,N
1685040755.3,286047062.6,N
1685040775.1,286047063.3,N
1685040795.9,286047062.1,N
1685040815.7,286047064.7,N
1685040835.5,286047065.2,N
1685040855.4,286047062.7,N
1685040875.2,286047062.8,N
1685040895.0,286047065.2,N
1685040896.0,286047065.2,N
1685040915.8,286047064.0,N
1685040935.6,286047066.3,N
1685040955.5,286047066.2,N
1685040975.3,286047065.7,N
1685040995.1,286047068.4,N
1685041015.9,286047066.4,N
1685041035.7,286047065.8,N
1685041055.5,286047066.5,N
1685041075.4,286047063.8,N
1685041095.2,286047064.8,N
1685041115.1,286047066.8,N
1685041116.0,286047066.8,N
1685041135.8,286047064.4,N
1685041155.6,286047065.1,N
1685041175.5,286047064.7,N
1685041195.3,286047064.0,N
